Location: Oak Glen
(34.0495°N, 116.9470°E)
Time: 02:28:36
(UTC-07:00)

Vanguard 3 - Visible Passes

Search period start: 18 October 2017 00:00
Search period end: 28 October 2017 00:00
Orbit: 510 x 3263 km, 33.3° (Epoch: 17 October)

Date Brightness Start Highest point End Pass type
(mag) Time Alt. Az. Time Alt. Az. Time Alt. Az.
18 Oct 10.2 11:28:38 30° SSE 11:28:44 30° SSE 11:38:07 10° E visible
18 Oct 9.0 13:33:16 20° SW 13:42:59 59° SSE 13:50:43 10° E visible
19 Oct 10.9 10:19:22 16° ESE 10:19:22 16° ESE 10:22:37 10° ESE visible
19 Oct 9.6 12:23:59 39° SSW 12:28:03 47° SSE 12:37:18 10° E visible
19 Oct 8.5 14:29:06 10° WSW 14:41:52 77° S 14:48:45 10° E visible
20 Oct 10.1 11:14:38 35° SE 11:14:38 35° SE 11:23:13 10° E visible
20 Oct 9.0 13:19:14 30° SW 13:27:13 66° SSE 13:35:40 10° E visible
21 Oct 10.9 10:05:13 17° ESE 10:05:13 17° ESE 10:08:01 10° E visible
21 Oct 9.5 12:09:50 51° S 12:12:04 54° SSE 12:22:13 10° E visible
21 Oct 8.6 14:14:25 15° WSW 14:26:14 82° S 14:33:43 10° E visible
22 Oct 10.1 11:00:20 37° ESE 11:00:20 37° ESE 11:08:07 10° E visible
22 Oct 9.0 13:04:55 40° WSW 13:11:21 72° SSE 13:20:32 10° E visible
23 Oct 11.0 09:50:48 16° E 09:50:48 16° E 09:53:03 10° E visible
23 Oct 9.5 11:55:23 61° SSE 11:55:57 61° SSE 12:06:59 10° E visible
23 Oct 8.8 13:59:58 21° W 14:10:32 85° S 14:18:39 10° E visible
24 Oct 10.2 10:45:47 37° ESE 10:45:47 37° ESE 10:52:51 10° E visible
24 Oct 9.1 12:50:22 50° WSW 12:55:23 77° SSE 13:05:21 10° E visible
24 Oct 8.6 14:56:19 10° W 15:09:32 86° S 15:16:37 10° E visible
25 Oct 11.1 09:36:09 15° E 09:36:09 15° E 09:37:48 10° E visible
25 Oct 9.5 11:40:44 66° SE 11:40:44 66° SE 11:51:41 10° E visible
25 Oct 8.9 13:45:18 28° W 13:54:44 87° S 14:03:32 10° E visible
26 Oct 10.3 10:31:03 35° E 10:31:03 35° E 10:37:26 10° E visible
26 Oct 9.2 12:35:38 61° WSW 12:39:19 81° SSE 12:50:07 10° E visible
26 Oct 8.7 14:40:12 11° W 14:53:53 84° S 15:01:34 10° ESE visible
27 Oct 11.2 09:21:21 13° E 09:21:21 13° E 09:22:20 10° E visible
27 Oct 9.6 11:25:55 64° ESE 11:25:55 64° ESE 11:36:16 10° E visible
27 Oct 9.0 13:30:30 34° W 13:38:51 88° S 13:48:22 10° E visible
